Flag for Angola Weather past 2 weeks in Cabinda, Angola

Now
70 °F

Passing clouds.


Feels Like: 70 °F
Forecast: 69 / 75 °F
Wind: No wind

Location: Pointe Airport-Noire

Current Time: Jul 29, 2014 at 10:43:41 PM

Latest Report: Jul 29, 2014 at 10:00 PM


Visibility: 4 mi

Pressure: 30.01 "Hg

Humidity: 88%

Dew point: 66 °F

Location of CabindaLocation

Historic Weather in Cabinda — Graph

°F

Cabinda temperature yesterday

Maximum temperature yesterday: 77 °F (at 12:00 PM)
Minimum temperature yesterday: 68 °F (at 12:00 AM)
Average temperature yesterday: 72 °F

Past Weeks' High & Low Weather Summary

 TemperatureHumidityPressure
High79 °F (Jul 26, 1:00 PM)100% (Jul 21, 1:00 AM)30.09 "Hg (Jul 21, 1:00 AM)
Low64 °F (Jul 23, 6:00 AM)57% (Jul 17, 3:00 PM)29.86 "Hg (Jul 28, 4:00 PM)
Average71 °F84%30.00 "Hg
* Reported Jul 14 9:00 PM — Jul 29 9:00 PM, Cabinda, Weather by CustomWeather, © 2014

Note: Actual official high and low records may vary slightly from our data, if they occured in-between our weather recording intervals... More about our weather records

Advertising

Cabinda weather history for previous 24 hours

 ConditionsComfort  
Time TempWeatherWind HumidityBarometerVisibility
9:00 PM
Jul 29
70 °FPartly cloudy.No wind88%29.98 "Hg4 mi
8:00 PM70 °FLow clouds.No wind94%29.95 "Hg4 mi
7:00 PM70 °FMostly cloudy.5 mph94%29.92 "Hg4 mi
6:00 PM72 °FFog.7 mph88%29.92 "Hg2 mi
5:00 PM72 °FDrizzle. More clouds than sun.7 mph88%29.89 "Hg4 mi
4:00 PM72 °FDrizzle. Mostly cloudy.7 mph83%29.89 "Hg4 mi
3:00 PM72 °FDrizzle. More clouds than sun.7 mph83%29.89 "Hg4 mi
2:00 PM72 °FMore clouds than sun.7 mph88%29.92 "Hg4 mi
1:00 PM72 °FDrizzle. More clouds than sun.9 mph88%29.92 "Hg4 mi
12:00 PM70 °FDrizzle. Cloudy.7 mph94%29.95 "Hg1 mi
11:00 AM70 °FDrizzle. Mostly cloudy.5 mph94%29.95 "Hg1 mi
10:00 AM70 °FDrizzle. More clouds than sun.7 mph94%29.98 "Hg2 mi
9:00 AM72 °FMore clouds than sun.7 mph83%29.98 "Hg4 mi
8:00 AM70 °FFog.7 mph88%29.95 "Hg2 mi
7:00 AM70 °FFog.No wind88%29.95 "Hg2 mi
6:00 AM70 °FMostly cloudy.5 mph88%29.95 "Hg4 mi
5:00 AM70 °FMostly cloudy.5 mph88%29.95 "Hg4 mi
4:00 AM70 °FMostly cloudy.5 mph88%29.95 "Hg4 mi
3:00 AM70 °FMostly cloudy.7 mph88%29.95 "Hg4 mi
2:00 AM70 °FOvercast.5 mph88%29.95 "Hg4 mi
1:00 AM70 °FOvercast.2 mph88%29.95 "Hg4 mi
12:00 AM70 °FOvercast.5 mph88%29.98 "Hg4 mi
11:00 PM
Jul 28
70 °FMostly cloudy.7 mph88%29.98 "Hg4 mi
Weather by CustomWeather, © 2014

See weather overviewHow to use our weather pages